Location: *
(40.7765°S, 106.5327°E)
Time: 14:47:08
(UTC+00:00)

Meteor PRIRODA - Pass Details

Date: 26 May 2022
Orbit: 482 x 503 km, 97.6° (Epoch: 04 July)

Event Time Altitude Azimuth Distance (km) Brightness Sun altitude
Exits shadow 11:06:42 10° 169° (S) 1,712 6.1 -16.5°
Maximum altitude 11:10:24 85° 257° (WSW) 513 3.6 -17.2°
Drops below altitude 10° 11:14:05 10° 345° (NNW) 1,712 6.7 -17.9°
Sets 11:16:09 0° 345° (NNW) 2,590 7.6 -18.3°
